Погода Большая Мурта

Погода Большая Мурта : погода сейчас, прогноз погоды и архив. Всё, что Вы хотите узнать о погоде Большая Мурта!

Хотите узнать прогноз погоды Большая Мурта? Тогда Вам сюда: Погода Большая Мурта

Поиск расширенной информации на нашем сайте:

Другие новости

Новости СМИ2

Главная страница сайта

Новости сайта

03.07.2017

Напоминаем, что на нашем специализированном сайте Метеоцентр.Азия вы можете получить высокодетализированные автоматические прогнозы погоды по пунктам России, СНГ и мира в авиационном формате (включающие направление и скорость ветра, видимость, явления погоды, количество и форму облачности, нижнюю и верхнюю границу облачности).

Рекомендуем: промокод связной сентябрь 2015

Погода Большая Мурта - сегодня

Время (UTC), дата Ветер
(°,м/с) 
Видим.   Явления Облачность Т
(°С)
Тd
(°С)
f(%) Тe
(°С)
Pmin
(гПа)
dP
(гПа)
Po
(мм)
O2
(г/м3)
Тmin Tmax R s Состояние
почвы
00 16.04.18 200 (Ю) 20000 м    9/9 600 м кучево-дожд. 
[Cb cap]
+3.5 -7.8 43 +2  1007.6  -0.2  739  295  +1.5         
03 16.04.18 210 (ЮЗ) 10 км    10/8 600 м кучево-дожд., средняя 
[Cb cap|Ac und]
+5.9 -5.9 42 +5  1006.8  -0.7  739  292           
06 16.04.18 210 (ЮЗ) 10 км    10/6 600 м кучево-дожд., средняя 
[Cb cap|As trans]
+8.5 -5.4 37 +8  1005.6  -0.9  738  289           
09 16.04.18 210 (ЮЗ) 4{10}  10 км    10/10 600 м кучево-дожд. 
[Cb cap]
+7.7 -3.3 46 +6  1005.1  -0.5  738  289           
12 16.04.18 160 (Ю) 10 км    10/10 600 м кучево-дожд. 
[Cb cap]
+7.6 -2.8 48 +9  1003.5  -1.6  736  289    +8.8       
15 16.04.18 тихо ()   20000 м    8/3 600 м кучево-дожд., средняя, верхняя 
[Cb cap|Ac lent|Ci fib]
+2.4 -1.8 74 +2  1003.3  -0.6  736  294           
18 16.04.18 160 (Ю) 20000 м    10/10 600 м кучево-дожд. 
[Cb cap]
+2.5 -1.7 74 +3  1001.4  -1.9  734  293           
00 17.04.18 190 (Ю) 20000 м    9/5 600 м кучево-дожд., средняя, верхняя 
[Cb cap|Ac trans|Ci fib]
+4.5 -5.4 49 +3  1001.1  -0.2  734  292  -0.1         
12 17.04.18 230 (ЮЗ) 4{14}  20000 м  {ливн. осадки}  9/9 600 м кучево-дожд. 
[Cb cap]
+3.3 -8.6 41 +1  1006.2  0.7  738  295    +8  0.0     
15 17.04.18 280 (З) 3{11}  10 км    6/6 600 м кучево-дожд. 
[Cb cap]
-1.2 -5.6 72 -3  1008    739  300           
18 17.04.18 260 (З) 10 км    3/3 600 м кучево-дожд. 
[Cb cap]
-1.8 -6.5 70 -4  1010.3  2.2  741  301           
21 17.04.18 250 (З) 10 км    ясно 
-2.3 -7.5 67 -4  1012.4  2.1  742  302           
00 18.04.18 260 (З) 10 км    10/10 600 м кучево-дожд. 
[Cb cap]
-2.9 -8.1 67 -5  1014.6  744  304  -3.2         
06 18.04.18 250 (З) 4{12}  20000 м    8/8 1000 м верхняя 
[Cu med, cong|Ci fib]
+1.4 -15.3 28 -1  1016.9  746  300           
09 18.04.18 260 (З) 4{11}  20000 м    8/8 600 м кучево-дожд. 
[Cb cap]
+0.6 -15.8 28 -2  1018  747  301           
12 18.04.18 250 (З) 20000 м    9/6 600 м кучево-дожд., средняя 
[Cb cap|Ac trans]
-0.7 -15.9 31 -3  1018.8  0.7  747  303    +2.4       
15 18.04.18 240 (ЮЗ) 20000 м    6/4 600 м кучево-дожд., средняя 
[Cb cap|Ac lent]
-2 -14.3 38 -1  1019.7  0.7  748  305           
18 18.04.18 290 (З) 20000 м    8/8 600 м кучево-дожд. 
[Cb cap]
-2.6 -13.1 44 -4  1020.6  0.9  748  306           
21 18.04.18 тихо ()   20000 м    8/4 600 м кучево-дожд., средняя 
[Cb cap|Ac trans]
-5.4 -10.7 66 -5  1021.5  0.6  749  309           
00 19.04.18 280 (З) 20000 м    9/9 600 м 
[Sc]
-4.6 -10 66 -4  1022.2  0.8  749  308  -5.5         
03 19.04.18 230 (ЮЗ) 10 км    9/9 600 м кучево-дожд. 
[Cb cap]
-1.7 -14.4 37 -3  1022.2  0.2  749  305           
06 19.04.18 220 (ЮЗ) 10 км    9/9 600 м кучево-дожд. 
[Cb cap]
-0.6 -14.6 34 -2  1021.4  -0.7  749  304           
09 19.04.18 280 (З) 10 км    6/6 600 м кучево-дожд. 
[Cb cap]
+2.1 -14.8 27 +1  1019.8  -1.3  748  300           
12 19.04.18 240 (ЮЗ) 10 км    3/3 600 м кучево-дожд. 
[Cb cap]
+2.5 -14.4 27 +2  1019.5  -0.3  748  300    +3.1       
15 19.04.18 210 (ЮЗ) 20000 м    ясно 
-3 -10.3 57 -3  1020  0.1  748  306           
Время (UTC), дата Ветер
(°,м/с) 
Видим.   Явления Облачность Т
(°С)
Тd
(°С)
f(%) Тe
(°С)
Pmin
(гПа)
dP
(гПа)
Po
(мм)
O2
(г/м3)
Тmin Tmax R s Состояние
почвы

Для получения пояснительной информации подведите курсор к названию столбца.

ПОГОДА Большая Мурта - архив

Всё, что Вы хотите узнать о погоде Большая Мурта - удобно и подробно!

Выберите нужную дату (начиная с 1 января 2015* года) и нажмите кнопку "Найти".
Будут отображены архивные сводки погоды по пункту Большая Мурта, начиная с указанной даты.


Отображать данные в формате CSV (для использования в таблицах Excel)


Внимание! Наш архив погоды предназначен исключительно для личного некоммерческого использования в познавательных целях. Если Вам необходимы официальные справки о состоянии погоды (для производственных, юридических, коммерческих и т.п. целей), обращайтесь в органы Росгидромета.

*Примечание: данная дата относится к архиву по метеостанциям СССР (Россия, СНГ, Балтия).
Архив по метеостанциям Зарубежной Европы и Азии (кроме Китая) хранится 10 дней, по другим регионам земного шара (Китай, Африка, Америка, Австралия, Океания) - 1 день.

Большая Мурта - район местоположения метеостанции


Название, широта, долгота, высота метеостанции:
Большая Мурта 56.9°ш. 93.1°д. 180 м над ур. моря [Российская Федерация]

Дополнительная информация

В oтличие oт бoльшинства пoгoдных сайтoв мы публикуем пoдрoбную метеoинфoрмацию в детальнoм прoфессиoнальнoм фoрмате.

Характеристики температуры и влажнoсти вoздуха измеряются на высoте 2 м в тени вдали oт зданий и деревьев.
Скoрoсть ветра измеряется на высoте 10 м (на урoвне рoста челoвека скoрoсть ветра ниже в 1.5-2 раза). Если метеoстанция нахoдится в гoрoде или в лесу, тo скoрoсть ветра занижена на 2-4 м/с пo сравнению с oткрытым местoм. Скoрoсть ветра над акватoриями крупных рек и oзёр, а также на вершинах хoлмoв на 2-5 м/с выше, чем в oбычных услoвиях.
Атмoсфернoе давление в разных тoчках местнoсти мoжет значительнo oтличаться oт давления на метеoстанции, в зависимoсти oт услoвий рельефа (при пoдъёме на 10 м давление пoнижается примернo на 1 мм рт.ст.).